GW6013 Weather Reports


time (UTC)temp
F
wind
direction
speed
knots
gust
knots
rain 1hr
in
rain 24hr
in
rain mn
in
humidity
%
barometer
mb
20260507201521 65 266 3.5 12.2 0.00 0.33 0.29 30 1004.7
20260507200021 66 328 5.2 9.6 0.00 0.33 0.29 29 1004.9
20260507194508 66 274 0.9 10.4 0.00 0.33 0.29 30 1004.9
20260507193019 66 345 2.6 7.0 0.00 0.33 0.29 30 1005.0
20260507191518 66 23 2.6 10.4 0.00 0.33 0.29 32 1005.2
20260507190024 65 25 1.7 4.3 0.00 0.33 0.29 35 1005.3
20260507184526 65 244 0.9 7.8 0.00 0.33 0.29 37 1005.6
20260507183011 65 16 0.9 9.6 0.00 0.33 0.29 35 1005.6
20260507181517 65 342 1.7 7.8 0.00 0.33 0.29 36 1005.9
20260507180019 66 280 1.7 4.3 0.00 0.33 0.29 39 1005.8
20260507174540 65 3 0.9 4.3 0.00 0.33 0.29 42 1005.6
20260507173027 64 211 1.7 10.4 0.00 0.33 0.29 44 1005.8
20260507171539 64 339 1.7 4.3 0.00 0.33 0.29 46 1005.9
20260507170015 63 285 2.6 7.0 0.00 0.33 0.29 48 1006.0
20260507164524 61 22 0.0 2.6 0.00 0.33 0.29 57 1006.1
20260507163023 61 337 0.9 4.3 0.00 0.33 0.29 55 1006.3
20260507161527 60 259 0.0 3.5 0.00 0.33 0.29 56 1006.7
20260507160031 60 276 0.0 4.3 0.00 0.33 0.29 57 1006.9
20260507154520 61 125 1.7 5.2 0.00 0.33 0.29 55 1007.1
20260507153026 60 51 1.7 6.1 0.00 0.33 0.29 55 1007.2
20260507151522 60 332 1.7 7.0 0.00 0.33 0.29 56 1007.3
20260507150026 58 323 0.9 7.8 0.00 0.33 0.29 60 1007.5
20260507144528 59 356 1.7 5.2 0.00 0.33 0.29 61 1007.6
20260507143020 57 342 3.5 6.1 0.00 0.33 0.29 64 1007.8
20260507141524 57 266 0.9 4.3 0.00 0.33 0.29 65 1007.9
20260507140036 55 257 0.9 6.1 0.00 0.33 0.29 70 1007.9
20260507134530 54 337 3.5 9.6 0.00 0.33 0.29 71 1008.0
20260507133026 54 338 1.7 7.0 0.00 0.33 0.29 77 1007.9
20260507131536 52 264 0.0 6.1 0.00 0.33 0.29 83 1008.0
20260507130027 51 320 0.9 3.5 0.00 0.33 0.29 90 1008.0
20260507124530 50 314 0.0 4.3 0.00 0.33 0.29 91 1008.1
20260507123004 50 297 0.0 0.9 0.00 0.33 0.29 93 1008.3
20260507121503 49 296 0.0 0.9 0.01 0.33 0.29 93 1007.9
20260507120005 48 225 0.0 0.9 0.03 0.33 0.29 93 1008.0
20260507114504 48 210 0.0 0.9 0.05 0.33 0.29 93 1007.9
20260507113003 48 191 0.0 0.9 0.06 0.33 0.29 92 1007.7
20260507111506 47 359 0.0 0.9 0.06 0.32 0.28 92 1007.7
20260507110004 48 338 0.0 2.6 0.05 0.30 0.26 91 1007.8
20260507104505 48 321 0.0 0.9 0.04 0.28 0.24 91 1007.7
20260507103004 48 264 0.0 4.3 0.03 0.27 0.23 91 1007.9
20260507101506 48 263 0.9 4.3 0.03 0.26 0.22 91 1007.7
20260507100009 49 260 0.0 3.5 0.03 0.25 0.21 92 1007.6
20260507094506 49 6 0.9 4.3 0.04 0.24 0.20 92 1007.2
20260507093005 50 273 0.0 2.6 0.05 0.24 0.20 92 1007.3
20260507091505 50 53 0.0 6.1 0.08 0.23 0.19 91 1006.9
20260507090007 51 262 0.9 2.6 0.11 0.22 0.18 91 1007.0
20260507084518 52 298 0.9 2.6 0.16 0.20 0.16 92 1007.0
20260507083019 53 320 0.0 0.9 0.15 0.19 0.15 91 1006.6
20260507081504 53 344 0.9 3.5 0.11 0.15 0.11 91 1007.0
20260507080007 54 334 1.7 5.2 0.07 0.11 0.07 89 1006.8
20260507074506 55 303 0.9 7.0 0.00 0.04 0.00 85 1006.9
20260507073010 55 311 1.7 5.2 0.00 0.04 0.00 85 1005.9
20260507071516 56 359 0.0 3.5 0.00 0.04 0.00 86 1005.8
20260507070016 57 323 0.0 4.3 0.00 0.04 0.00 86 1005.8
20260507064509 57 278 0.0 0.9 0.00 0.04 0.00 87 1006.0
20260507063013 57 283 0.0 1.7 0.00 0.04 0.00 89 1005.8
20260507061514 57 327 0.0 4.3 0.00 0.04 0.00 91 1005.9
20260507060010 57 138 0.0 1.7 0.00 0.04 0.00 93 1006.4
20260507054513 57 127 0.0 0.9 0.00 0.04 0.00 93 1006.2
20260507053010 57 127 0.0 0.9 0.00 0.04 0.00 93 1006.2
20260507051514 57 126 0.0 0.0 0.00 0.04 0.00 93 1006.2
20260507050035 57 252 0.0 0.9 0.00 0.04 0.00 93 1006.6
20260507044522 57 230 0.0 2.6 0.00 0.04 0.00 93 1006.3
20260507043016 57 185 0.0 1.7 0.00 0.04 0.00 92 1006.0
20260507041516 57 250 0.9 7.0 0.00 0.04 0.00 92 1006.3
20260507040018 57 248 0.0 4.3 0.00 0.04 0.00 92 1006.4
20260507034519 57 213 0.0 4.3 0.00 0.04 0.04 92 1006.7
20260507033030 56 230 1.7 6.1 0.00 0.04 0.04 92 1006.3
20260507031517 56 219 0.9 7.0 0.00 0.04 0.04 92 1006.2
20260507030018 56 226 0.9 5.2 0.00 0.04 0.04 92 1006.0
20260507024519 56 193 1.7 6.1 0.00 0.04 0.04 92 1006.1
20260507023020 56 224 0.9 7.0 0.00 0.04 0.04 92 1005.9
20260507021533 56 217 1.7 7.8 0.00 0.04 0.04 92 1006.0
20260507020023 56 169 3.5 8.7 0.00 0.04 0.04 92 1006.0
20260507014520 56 281 1.7 7.0 0.00 0.04 0.04 92 1006.5
20260507013019 56 213 0.9 7.0 0.00 0.04 0.04 92 1006.5
20260507011528 56 191 3.5 9.6 0.00 0.04 0.04 92 1006.6
20260507010034 56 256 2.6 6.1 0.00 0.04 0.04 92 1006.4
20260507004521 56 143 3.5 8.7 0.01 0.04 0.04 92 1006.4
20260507003022 56 206 2.6 8.7 0.01 0.04 0.04 92 1006.4
20260507001520 56 164 2.6 9.6 0.02 0.04 0.04 92 1006.5
20260507000024 56 234 2.6 10.4 0.02 0.04 0.04 92 1006.3
20260506234520 56 108 2.6 8.7 0.01 0.03 0.03 91 1006.3
20260506233024 56 244 1.7 9.6 0.01 0.03 0.03 91 1006.3
20260506231525 57 169 3.5 14.8 0.01 0.02 0.02 91 1006.5
20260506230026 57 231 3.5 12.2 0.01 0.02 0.02 91 1006.6
20260506224521 57 201 2.6 7.8 0.01 0.02 0.02 91 1006.6
20260506223022 57 234 1.7 9.6 0.01 0.02 0.02 90 1007.0
20260506221523 58 260 1.7 13.0 0.00 0.01 0.01 89 1007.0
20260506220031 58 219 2.6 18.2 0.00 0.01 0.01 87 1007.2
20260506214525 59 257 4.3 10.4 0.01 0.01 0.01 87 1007.1
20260506213008 58 221 2.6 8.7 0.01 0.01 0.01 87 1007.1
20260506211514 58 172 2.6 9.6 0.01 0.01 0.01 88 1007.1
20260506210018 59 179 1.7 9.6 0.01 0.01 0.01 86 1007.3
20260506204528 59 208 1.7 7.8 0.00 0.00 0.00 85 1007.3
20260506203029 60 264 4.3 13.0 0.00 0.00 0.00 85 1007.3